User: anonymous   Login
Location: Unspecified
(0.0000°N, 0.0000°E)
Time: 06:13:49
(UTC+00:00)
Language:

UNK - Orbit

View from above orbital plane
View from above orbital plane
View from above satellite
View from above satellite

Ground track
Ground track

The orbit data is extracted from the following two-line orbital elements,

1 27942U 03042D   18203.46421186  .00000104  00000-0  20624-4 0  9992
2 27942  97.8037   7.7959 0061372 214.8610 144.8576 14.79200916795452
Epoch (UTC): 22 July 2018 11:08:27
Eccentricity: 0.0061372
inclination: 97.8037°
perigee height: 589 km
apogee height: 675 km
right ascension of ascending node: 7.7959°
argument of perigee: 214.8610°
revolutions per day: 14.79200916
mean anomaly at epoch: 144.8576°
orbit number at epoch: 79545

The dashed part of the orbit path shows where the satellite is in the earth's shadow,  

DLR